Location: Oberstdorf
(47.4188°N, 10.2969°E)
Time: 21:51:20
(UTC+01:00)

ISS - Pass Details

Date: 29 October 2019
Orbit: 412 x 421 km, 51.6° (Epoch: 17 November)

Event Time Altitude Azimuth Distance (km) Brightness Sun altitude
Exits shadow 04:56:48 50° 163° (SSE) 544 -3.2 -20.9°
Maximum altitude 04:57:00 51° 148° (SSE) 537 -3.1 -20.8°
Drops below altitude 10° 05:00:18 10° 72° (ENE) 1,509 0.1 -20.3°
Sets 05:02:26 0° 67° (ENE) 2,375 1.3 -19.9°
